sat.trackr.live / text

‹ back to catalog

TIANQI-14

NORAD 48864 · 2021-055E

PAYLOAD ACTIVE UNKNOWN

§ Identity

Operator
Country
PRC
Launch date
2021-06-18
Launch site
XICLF
Launch vehicle
Mass (kg)
RCS (m²)

External: N2YO · Heavens-Above · Gunter

§ Orbital elements

Epoch: 2026-09-20T03:23:15.836064Z

Period
95.08 min
Inclination
34.9978°
Eccentricity
0.0003338
Mean motion
15.14554817 rev/d
Perigee alt
520.0 km
Apogee alt
524.6 km
Semi-major
6,900.5 km
B*
2.2619e-4
RAAN
209.4257°
Arg perigee
84.3686°
Mean anomaly
275.7407°
Rev number
28,812

§ Raw data

TIANQI-141 48864U 21055E   26263.14115551  .00004234  00000+0  22619-3 0  99902 48864  34.9978 209.4257 0003338  84.3686 275.7407 15.14554817288127

JSON: /api/v1/satellites/48864 · /tle

For live sub-satellite position, see the globe view (requires WebGL).

§ Visibility from observer

Set your observer location to see the next 7 days of passes ≥ 10°. The values pass through the URL so the page stays shareable.

No JS? Fill the form by hand. The geolocation button needs JavaScript.